This is the latest recevied weather packets stored in our database for station/object IZ1UQG-N2. If no packets are shown the sender has not sent any weather packets the latest 10 day(s).
| Time | Temp. | Humidity | Pressure | Rain* | Wind** | Luminosity | Snow |
|---|---|---|---|---|---|---|---|
| 1788007545 | 28.89° C | 43% | 1011.3 hPa | 51.05 mm | - | 705 W/m² | - |
| 1788007484 | 28.89° C | 43% | 1011.2 hPa | 25.65 mm | - | 747 W/m² | - |
| 1788007426 | 28.89° C | 45% | 1011.2 hPa | 25.65 mm | - | 747 W/m² | - |
| 1788007366 | 28.89° C | 45% | 1011.2 hPa | 25.65 mm | - | 747 W/m² | - |
| 1788007305 | 28.89° C | 45% | 1011.2 hPa | 51.05 mm | - | 747 W/m² | - |
| 1788007245 | 28.89° C | 45% | 1011.1 hPa | 51.05 mm | - | 747 W/m² | - |
| 1788007186 | 28.89° C | 45% | 1011.2 hPa | 51.05 mm | - | 747 W/m² | - |
| 1788007125 | 28.89° C | 45% | 1011.2 hPa | 51.05 mm | - | 747 W/m² | - |
| 1788007065 | 28.89° C | 45% | 1011.3 hPa | 51.05 mm | - | 747 W/m² | - |
| 1788007004 | 28.89° C | 43% | 1011.3 hPa | 51.05 mm | - | 747 W/m² | - |
| 1788006944 | 28.89° C | 43% | 1011.3 hPa | 51.05 mm | - | 747 W/m² | - |
| 1788006885 | 28.89° C | 44% | 1011.3 hPa | 51.05 mm | - | 747 W/m² | - |
| 1788006825 | 28.89° C | 44% | 1011.4 hPa | 51.31 mm | - | 747 W/m² | - |
| 1788006765 | 28.89° C | 45% | 1011.3 hPa | 51.31 mm | - | 747 W/m² | - |
| 1788006706 | 28.33° C | 40% | 1011.3 hPa | 76.71 mm | - | 747 W/m² | - |
| 1788006646 | 28.89° C | 44% | 1011.3 hPa | 76.71 mm | - | 747 W/m² | - |
| 1788006586 | 28.89° C | 42% | 1011.3 hPa | 76.71 mm | - | 747 W/m² | - |
| 1788006525 | 28.89° C | 41% | 1011.3 hPa | 76.71 mm | - | 747 W/m² | - |
| 1788006465 | 28.89° C | 41% | 1011.3 hPa | 76.71 mm | - | 747 W/m² | - |
| 1788006405 | 28.89° C | 43% | 1011.3 hPa | 76.71 mm | - | 747 W/m² | - |
| 1788006344 | 28.89° C | 37% | 1011.4 hPa | 76.71 mm | - | 747 W/m² | - |
| 1788006285 | 28.89° C | 37% | 1011.4 hPa | 76.71 mm | - | 747 W/m² | - |
| 1788006224 | 28.33° C | 37% | 1011.4 hPa | 76.45 mm | - | 747 W/m² | - |
| 1788006166 | 28.33° C | 36% | 1011.3 hPa | 76.45 mm | - | 747 W/m² | - |
| 1788006106 | 28.33° C | 36% | 1011.4 hPa | 76.71 mm | - | 751 W/m² | - |
* Rain latest hour (hover to see other rain measurements)
** Current wind speed in m/s (hover to see current wind gust speed)